[[{"header":{"parameterUnit":"m.s-1","parameterCategory":1,"la1":30.2991,"la2":30.254,"lo1":-89.0895,"lo2":-89.0444,"dy":0.0017,"dx":0.0017,"nx":28,"ny":28,"refTime":"2023-10-01T09:00:00:Z","depth":0,"parameterNumber":2,"parameterNumberName":"U-component_of_WINDS"},"data":[0,0,0,0,0,0,0,0,0,0,0,0,0,0,0,0,0,0,0,0,0,0,0,0,0,0,0,0,0,0,0,0,0,0,0,0,0,0,0,0,0,0,0,0,0,0,0,0,0,0,0,0,0,0,0,0,0,0,-5.8079,-5.8079,0,-5.8056,-5.8056,-5.8056,-5.7903,-5.79,-5.7896,-5.7892,-5.7872,-5.7875,-5.7878,0,0,0,0,0,0,0,0,0,0,0,0,0,-5.7996,-5.7998,-5.8079,-5.8079,-5.8078,-5.8056,-5.8056,-5.8056,-5.7904,-5.7899,-5.7895,-5.7891,-5.7871,-5.7874,-5.7878,0,0,0,0,0,0,0,0,0,0,0,0,0,-5.8008,-5.7999,-5.8079,-5.8,-5.7993,-5.8056,-5.8056,-5.8055,-5.7905,-5.7899,-5.7894,-5.7889,-5.787,-5.7874,-5.7878,-5.8017,0,0,-5.7892,-5.7894,0,0,0,0,0,0,0,0,-5.8008,-5.8012,-5.8012,-5.8006,-5.7997,-5.7977,-5.8019,-5.8043,-5.7906,-5.7938,-5.7892,-5.7886,-5.7912,-5.7912,-5.792,-5.8016,-5.8015,-5.7892,-5.7895,-5.7897,-5.7898,0,0,0,0,0,0,0,-5.8007,-5.8012,-5.807,-5.8012,-5.8003,-5.7967,-5.7963,-5.8023,-5.7957,-5.7935,-5.7924,-5.7923,-5.7907,-5.7916,-5.7919,-5.8015,-5.7892,-5.7896,-5.7899,-5.79,-5.8227,-5.8233,0,0,0,0,0,0,-5.8017,-5.8012,-5.8071,-5.8069,-5.7989,-5.7973,-5.7968,-5.7989,-5.7955,-5.7945,-5.7928,-5.7916,-5.7912,-5.7914,-5.7917,-5.808,-5.7897,-5.7901,-5.7903,-5.8221,-5.8228,-5.8235,0,0,0,0,0,0,-5.8016,-5.8024,-5.8072,-5.8038,-5.8041,-5.7981,-5.8005,-5.7992,-5.8001,-5.795,-5.7938,-5.795,-5.7907,-5.7911,-5.7994,-5.8077,-5.7903,-5.7907,-5.8214,-5.8223,-5.8232,-5.8405,0,0,0,0,0,0,-5.8014,-5.8024,-5.8075,-5.804,-5.8043,-5.8148,-5.801,-5.7995,-5.8009,-5.7993,-5.7967,-5.7958,-5.7903,-5.7988,-5.7998,-5.808,-5.791,-5.8206,-5.8218,-5.8229,-5.8391,-5.8418,-5.8442,0,0,0,0,0,-5.8011,-5.8124,-5.8078,-5.8086,-5.8106,-5.8153,-5.8155,-5.8089,-5.8016,-5.8068,-5.8035,-5.7959,-5.8066,-5.7998,-5.8008,-5.8092,-5.8201,-5.8215,-5.8228,-5.838,-5.8413,-5.8441,0,0,0,0,0,0,-5.817,-5.8118,-5.8066,-5.8171,-5.8168,-5.8127,-5.819,-5.8126,-5.8143,-5.8128,-5.8046,-5.8042,-5.8138,-5.8123,-5.8048,-5.8226,-5.812,-5.8137,-5.8233,-5.8264,-5.8288,-5.8291,-5.7914,0,0,0,0,0,-5.8218,-5.8259,-5.8212,-5.8309,-5.831,-5.8251,-5.8269,-5.8218,-5.8212,-5.821,-5.8183,-5.8181,-5.8214,-5.8238,-5.8265,-5.8388,-5.8382,-5.8451,-5.8476,-5.8497,-5.8513,-5.858,-5.8611,-5.828,-5.828,-5.8279,0,0,-5.8316,-5.8292,-5.8323,-5.834,-5.8331,-5.8378,-5.825,-5.8304,-5.8339,-5.8218,-5.8295,-5.8276,-5.8268,-5.8373,-5.8417,-5.8363,-5.8603,-5.8515,-5.8532,-5.8536,-5.8597,-5.8629,-5.8657,-5.8289,-5.8287,-5.8286,0,0,-5.8519,-5.8504,-5.8585,-5.8579,-5.8568,-5.8528,-5.8548,-5.8518,-5.8501,-5.8576,-5.8488,-5.8528,-5.8587,-5.8586,-5.8593,-5.8799,-5.8731,-5.8811,-5.8943,-5.901,-5.9036,-5.9058,-5.9135,-5.9163,-5.8826,-5.8826,-5.8827,0,-5.8642,-5.8708,-5.8634,-5.8695,-5.8707,-5.8599,-5.8682,-5.868,-5.8679,-5.8691,-5.8629,-5.8703,-5.8689,-5.8794,-5.8845,-5.8853,-5.8875,-5.8813,-5.9038,-5.906,-5.908,-5.9152,-5.9181,-5.8836,-5.8835,-5.8834,-5.8833,0,-5.8862,-5.8909,-5.8976,-5.8978,-5.8996,-5.9068,-5.9007,-5.9035,-5.8984,-5.8952,-5.9033,-5.9014,-5.9037,-5.9058,-5.9008,-5.9157,-5.9124,-5.9052,-5.8944,-5.9123,-5.9189,-5.9216,-5.8851,-5.8847,-5.8844,-5.8842,0,0,-5.9163,-5.9125,-5.9151,-5.9152,-5.9133,-5.9169,-5.9237,-5.926,-5.9287,-5.929,-5.9347,-5.94,-5.9334,-5.9343,-5.9293,-5.9351,-5.9519,-5.9272,-5.927,-5.9321,-5.9685,-5.9741,-5.9774,-5.9473,-5.9478,-5.9482,-5.9687,0,-5.9359,-5.9472,-5.941,-5.9532,-5.9577,-5.9477,-5.9537,-5.9533,-5.9506,-5.9541,-5.951,-5.955,-5.9459,-5.9464,-5.9517,-5.9488,-5.9592,-5.9472,-5.9528,-5.9531,-5.9535,-5.9808,-5.9866,-6.006,-5.9712,-5.9716,-5.9719,0,-5.9603,-5.9618,-5.9745,-5.9721,-5.9737,-5.9792,-5.9809,-5.9843,-5.9838,-5.9814,-5.9826,-5.9762,-5.9829,-5.9723,-5.9816,-5.9736,-5.9755,-5.9745,-5.9751,-5.9755,-5.9637,-5.9821,-6.012,-6.015,-5.9759,-5.9756,-5.9753,0,-5.9813,-5.9865,-5.9948,-5.9952,-5.9925,-5.9966,-5.9957,-5.9946,-5.9965,-5.9981,-5.9993,-6.0016,-6.003,-6.0051,-5.9997,-5.9923,-6.0099,-5.9987,-6.0083,-6.0085,-6.0125,-6.0124,-6.0434,-6.0136,-6.0135,-6.0135,-6.0134,0,-6.004,-6.0122,-6.0043,-6.0094,-6.0185,-6.0113,-6.0205,-6.0185,-6.0178,-6.0225,-6.014,-6.0187,-6.0112,-6.0152,-6.0111,-6.0196,-6.0202,-6.0187,-6.0175,-6.0195,-6.0198,-6.0208,-6.0194,-6.0142,-6.014,-6.0139,-6.0138,0,-6.029,-6.0239,-6.0324,-6.0293,-6.0287,-6.0355,-6.0329,-6.0376,-6.0344,-6.0406,-6.0416,-6.0366,-6.0409,-6.0357,-6.0395,-6.0367,-6.0485,-6.0452,-6.0487,-6.0478,-6.0578,-6.0571,-6.0906,-6.0948,-6.0622,-6.0625,-6.0628,0,-6.0439,-6.05,-6.0475,-6.0501,-6.0497,-6.0539,-6.0558,-6.0491,-6.0515,-6.0516,-6.0564,-6.06,-6.0626,-6.07,-6.0668,-6.0698,-6.0667,-6.0783,-6.0671,-6.0691,-6.0672,-6.067,-6.0677,-6.0806,-6.081,-6.0813,-6.0816,0,-6.0709,-6.0682,-6.0712,-6.0735,-6.076,-6.0775,-6.0784,-6.081,-6.074,-6.0772,-6.0815,-6.0835,-6.0875,-6.0914,-6.0935,-6.0927,-6.0862,-6.0851,-6.0875,-6.0898,-6.0916,-6.091,-6.0551,-6.0844,-6.0841,-6.0839,-6.0837,-6.0836,-6.0914,-6.0965,-6.0957,-6.0994,-6.0994,-6.1005,-6.1049,-6.1022,-6.1057,-6.1084,-6.1043,-6.1098,-6.1095,-6.1117,-6.1117,-6.1161,-6.1112,-6.1146,-6.1155,-6.1165,-6.1182,-6.0909,-6.1164,-6.1164,-6.1163,-6.1162,-6.1161,0,-6.1182,-6.1172,-6.1207,-6.1223,-6.1253,-6.1188,-6.1195,-6.1225,-6.1275,-6.1276,-6.1304,-6.1356,-6.1393,-6.1365,-6.1397,-6.1437,-6.1408,-6.1448,-6.1445,-6.1446,-6.1223,-6.12,-6.1472,-6.1471,-6.1471,-6.1471,-6.1471,-6.1471,-6.1325,-6.1409,-6.1381,-6.1466,-6.1455,-6.1508,-6.1518,-6.1529,-6.153,-6.1592,-6.1623,-6.1604,-6.1595,-6.1626,-6.1658,-6.1649,-6.1666,-6.1717,-6.1698,-6.1491,-6.1461,-6.1432,-6.141,-6.1721,-6.1721,-6.1917,-6.1919,-6.192]},{"header":{"parameterUnit":"m.s-1","parameterCategory":1,"la1":30.2991,"la2":30.254,"lo1":-89.0895,"lo2":-89.0444,"dy":0.0017,"dx":0.0017,"nx":28,"ny":28,"refTime":"2023-10-01T09:00:00:Z","depth":0,"parameterNumber":3,"parameterNumberName":"V-component_of_WINDS"},"data":[0,0,0,0,0,0,0,0,0,0,0,0,0,0,0,0,0,0,0,0,0,0,0,0,0,0,0,0,0,0,0,0,0,0,0,0,0,0,0,0,0,0,0,0,0,0,0,0,0,0,0,0,0,0,0,0,0,0,0.5256,0.5256,0,0.5212,0.5211,0.5211,0.5235,0.5236,0.5237,0.5239,0.5185,0.5182,0.518,0,0,0,0,0,0,0,0,0,0,0,0,0,0.5357,0.5355,0.5256,0.5256,0.5255,0.5212,0.5211,0.5211,0.5235,0.5236,0.5238,0.5239,0.5186,0.5183,0.5179,0,0,0,0,0,0,0,0,0,0,0,0,0,0.5312,0.5354,0.5257,0.5262,0.5262,0.5212,0.5211,0.521,0.5234,0.5236,0.5238,0.524,0.5187,0.5183,0.5179,0.5118,0,0,0.5167,0.5165,0,0,0,0,0,0,0,0,0.5315,0.5309,0.5262,0.5262,0.5262,0.5231,0.5227,0.5179,0.5234,0.5245,0.5239,0.5241,0.5198,0.5193,0.5181,0.5115,0.5113,0.5167,0.5164,0.5163,0.5162,0,0,0,0,0,0,0,0.5318,0.5311,0.5238,0.5261,0.5261,0.5265,0.5261,0.5218,0.5211,0.5244,0.5246,0.5241,0.5198,0.5184,0.518,0.5112,0.5167,0.5163,0.5161,0.516,0.4994,0.4992,0,0,0,0,0,0,0.5322,0.5313,0.524,0.5237,0.5294,0.5262,0.5257,0.5239,0.5212,0.521,0.5239,0.5242,0.519,0.5184,0.5178,0.5103,0.5163,0.5159,0.5157,0.4996,0.4993,0.4991,0,0,0,0,0,0,0.5324,0.5315,0.5242,0.5276,0.5267,0.5258,0.5237,0.5237,0.5223,0.5208,0.5206,0.5226,0.5191,0.5183,0.5133,0.5102,0.5157,0.5154,0.4998,0.4995,0.4992,0.4954,0,0,0,0,0,0,0.5327,0.5316,0.5293,0.5275,0.5265,0.5199,0.5236,0.5235,0.5217,0.5221,0.5196,0.5193,0.5192,0.5139,0.5129,0.5097,0.5151,0.5001,0.4997,0.4993,0.4958,0.495,0.4944,0,0,0,0,0,0.533,0.5283,0.5292,0.5283,0.5237,0.5198,0.5191,0.5193,0.5215,0.5191,0.5182,0.5194,0.5108,0.5133,0.5123,0.5089,0.5003,0.4998,0.4994,0.4961,0.4952,0.4944,0,0,0,0,0,0,0.5294,0.528,0.529,0.5236,0.5218,0.5202,0.5172,0.5183,0.5156,0.516,0.5162,0.5156,0.5103,0.5092,0.5121,0.5029,0.5058,0.5051,0.5037,0.5028,0.5021,0.5023,0.5148,0,0,0,0,0,0.528,0.5251,0.524,0.5193,0.5184,0.518,0.5163,0.5166,0.5146,0.5138,0.5125,0.5103,0.5071,0.505,0.5019,0.4958,0.4952,0.493,0.4923,0.4917,0.4909,0.4875,0.4865,0.4976,0.4976,0.4976,0,0,0.525,0.5239,0.522,0.5186,0.5172,0.514,0.5173,0.5137,0.5113,0.5132,0.5083,0.5074,0.505,0.4994,0.4968,0.4982,0.4878,0.4911,0.4906,0.4902,0.4869,0.4859,0.4849,0.4973,0.4973,0.4974,0,0,0.5179,0.5169,0.5128,0.5115,0.5096,0.5094,0.5084,0.5067,0.5062,0.5015,0.5028,0.4998,0.4943,0.4926,0.4909,0.4835,0.4844,0.4825,0.4785,0.4751,0.4742,0.4735,0.4706,0.4696,0.4818,0.4818,0.4818,0,0.5143,0.5097,0.5105,0.507,0.5053,0.5073,0.5031,0.5017,0.4987,0.4975,0.4992,0.4925,0.491,0.485,0.4832,0.4819,0.4806,0.4826,0.4744,0.4736,0.4729,0.4701,0.469,0.4816,0.4816,0.4817,0.4817,0,0.5053,0.5022,0.4991,0.4965,0.4946,0.4907,0.4908,0.4887,0.4894,0.4889,0.484,0.4824,0.4791,0.4778,0.4782,0.4718,0.4727,0.4744,0.4773,0.4716,0.4689,0.4679,0.4813,0.4813,0.4814,0.4815,0,0,0.4953,0.4936,0.4924,0.4912,0.4894,0.4868,0.4831,0.4801,0.4782,0.4762,0.4729,0.4684,0.47,0.4682,0.4685,0.4656,0.4596,0.4676,0.4676,0.466,0.4522,0.4506,0.4494,0.4604,0.4602,0.46,0.4523,0,0.4879,0.4815,0.4822,0.476,0.473,0.475,0.4717,0.47,0.4696,0.4669,0.4663,0.463,0.4656,0.4645,0.4618,0.4609,0.4567,0.4615,0.4569,0.4567,0.4571,0.4481,0.4464,0.4392,0.4513,0.4511,0.451,0,0.4782,0.4762,0.4697,0.4684,0.4672,0.4642,0.4616,0.459,0.4572,0.4571,0.4553,0.4561,0.4521,0.4555,0.4498,0.4531,0.4513,0.4506,0.4503,0.4496,0.4532,0.4468,0.4369,0.4357,0.4495,0.4496,0.4497,0,0.4712,0.4669,0.4625,0.4615,0.4599,0.4577,0.457,0.4554,0.4536,0.4513,0.4501,0.4473,0.4457,0.4434,0.4434,0.4459,0.4376,0.441,0.4371,0.4371,0.4349,0.435,0.4243,0.4344,0.4344,0.4344,0.4345,0,0.4626,0.4585,0.4593,0.4565,0.452,0.453,0.4484,0.4478,0.4465,0.4435,0.4451,0.4422,0.4426,0.4396,0.4396,0.4348,0.4342,0.4337,0.4337,0.4334,0.4334,0.4319,0.4323,0.4342,0.4342,0.4343,0.4343,0,0.4538,0.4543,0.4496,0.4487,0.4483,0.445,0.4441,0.4414,0.4413,0.4375,0.4366,0.4363,0.433,0.433,0.429,0.429,0.4231,0.4238,0.4237,0.4237,0.4198,0.42,0.4074,0.4057,0.4173,0.4172,0.4171,0,0.4481,0.4451,0.4439,0.4422,0.4414,0.4385,0.4368,0.4377,0.4358,0.4337,0.4312,0.4281,0.4256,0.4201,0.4193,0.4163,0.4168,0.4126,0.4163,0.416,0.4163,0.4164,0.416,0.4117,0.4116,0.4115,0.4114,0,0.4378,0.4383,0.4359,0.4336,0.4316,0.4298,0.4281,0.4265,0.4272,0.425,0.4218,0.4199,0.4161,0.4128,0.41,0.4089,0.4101,0.4103,0.4092,0.4086,0.4086,0.4083,0.4214,0.4105,0.4106,0.4106,0.4107,0.4107,0.4302,0.4276,0.4264,0.4237,0.4227,0.4211,0.4185,0.4183,0.4157,0.4128,0.4135,0.4098,0.4082,0.4045,0.4033,0.4003,0.4017,0.4001,0.3997,0.3992,0.3986,0.4095,0.3998,0.3998,0.3998,0.3998,0.3999,0,0.4197,0.4192,0.4168,0.4145,0.4124,0.4143,0.4125,0.4105,0.4073,0.4059,0.4035,0.3997,0.3967,0.3959,0.3929,0.3907,0.3911,0.3898,0.3898,0.3895,0.3976,0.3988,0.3895,0.3895,0.3895,0.3895,0.3895,0.3895,0.414,0.4096,0.41,0.4051,0.4045,0.4011,0.4,0.3985,0.3974,0.3932,0.3908,0.3905,0.3892,0.3862,0.3834,0.3833,0.3819,0.3803,0.3803,0.3879,0.3889,0.3899,0.3909,0.3801,0.3801,0.3723,0.3723,0.3722]}]]